OPTUS C1

Last updated on Sun Apr 12 2026 00:02:51 GMT+0000 (Coordinated Universal Time)

1 27831U 03028B 26101.47629565 -.00000144 00000+0 00000+0 0 9996 2 27831 6.7228 70.2027 0006198 312.2087 144.5104 1.00272220 52397
UTC large
Height (km)
Speed (km/s)
/
Latitude / Longitude
Inclination (degrees)
Orbital Period (minutes)
Azimuth
Elevation
Range (km)
Doppler Factor

Next 0 passes for location: London (51.5072 / 0.1276)

Sorry there are no passes over London.
OPTUS C1